Date String (YYYY-MM-DD hh:mm:ss) UTC,Instrument flags,Ambient pressure (hPa),Sample flow (lpm),Bypass flow (lpm),Sample temperature (°C),Ambient temperature (°C),ASC tube jacket temperature (°C),LED temperature (°C),Box temperature (°C),Sample RH (%),Span deviation,Mass concentration (μg/m³),Mass concentration (μg/m³),Mass concentration (μg/m³)
DateTimeUTC,F1_M11,P_M11,Q1_M11,Q2_M11,T1_M11,T2_M11,T3_M11,T4_M11,T5_M11,U1_M11,ZSPAN_M11,X2_M11,X0_M11,X1_M11
2021-11-18 02:00:00,,0833.7,5.01,0.00,22.4,22.0,00.0,31.4,24.2,09.9,0000.0,0005.19,0015.86,0003.70
2021-11-18 02:01:00,,0833.7,4.99,0.00,22.4,21.9,00.0,31.4,24.2,09.8,0000.0,0005.22,0016.92,0003.70
2021-11-18 02:02:00,,0833.7,5.01,0.00,22.4,21.8,00.0,31.4,24.2,09.8,0000.0,0005.21,0017.32,0003.69
2021-11-18 02:03:00,,0833.7,5.00,0.00,22.4,21.8,00.0,31.4,24.2,09.9,0000.0,0005.23,0018.68,0003.68
2021-11-18 02:04:00,,0833.7,5.00,0.00,22.4,21.8,00.0,31.4,24.2,09.9,0000.0,0005.25,0018.31,0003.67
2021-11-18 02:05:00,,0833.7,4.99,0.00,22.4,21.7,00.0,31.4,24.1,09.9,0000.0,0005.26,0017.96,0003.68
2021-11-18 02:06:00,,0833.7,5.01,0.00,22.4,21.7,00.0,31.4,24.1,09.9,0000.0,0005.31,0018.95,0003.68
2021-11-18 02:07:00,,0833.7,5.01,0.00,22.3,21.7,00.0,31.4,24.1,09.9,0000.0,0005.26,0018.83,0003.68
2021-11-18 02:08:00,,0833.7,4.99,0.00,22.3,21.6,00.0,31.4,24.1,09.9,0000.0,0005.25,0018.40,0003.68
2021-11-18 02:09:00,,0833.7,5.01,0.00,22.3,21.6,00.0,31.4,24.1,09.9,0000.0,0005.22,0017.88,0003.67
2021-11-18 02:10:00,,0833.7,4.99,0.00,22.3,21.6,00.0,31.4,24.0,09.9,0000.0,0005.16,0017.10,0003.67
2021-11-18 02:11:00,,0833.7,4.99,0.00,22.3,21.6,00.0,31.4,24.0,09.9,0000.0,0005.11,0016.52,0003.67
2021-11-18 02:12:00,,0833.7,5.00,0.00,22.3,21.5,00.0,31.4,24.0,09.9,0000.0,0005.09,0016.28,0003.67
2021-11-18 02:13:00,,0833.7,5.00,0.00,22.3,21.5,00.0,31.4,24.0,10.0,0000.0,0005.10,0015.93,0003.66
2021-11-18 02:14:00,,0833.7,4.99,0.00,22.3,21.5,00.0,31.3,24.0,10.0,0000.0,0005.10,0015.65,0003.65
2021-11-18 02:15:00,,0833.7,5.01,0.00,22.2,21.5,00.0,31.3,23.9,10.0,0000.0,0005.08,0015.49,0003.63
2021-11-18 02:16:00,,0833.7,5.01,0.00,22.2,21.5,00.0,31.3,23.9,10.0,0000.0,0005.03,0015.67,0003.61
2021-11-18 02:17:00,,0833.7,4.99,0.00,22.2,21.5,00.0,31.3,23.9,10.1,0000.0,0005.02,0015.57,0003.62
2021-11-18 02:18:00,,0833.8,5.01,0.00,22.2,21.6,00.0,31.3,24.0,10.1,0000.0,0005.06,0015.26,0003.62
2021-11-18 02:19:00,,0833.8,4.99,0.00,22.3,22.1,00.0,31.3,24.1,10.0,0000.0,0005.07,0015.30,0003.64
2021-11-18 02:20:00,,0833.8,5.01,0.00,22.4,22.8,00.0,31.4,24.3,09.9,0000.0,0005.09,0014.91,0003.65
2021-11-18 02:21:00,,0833.9,5.00,0.00,22.5,22.9,00.0,31.4,24.5,09.9,0000.0,0005.12,0014.99,0003.66
2021-11-18 02:22:00,,0833.9,5.00,0.00,22.5,22.7,00.0,31.4,24.5,09.8,0000.0,0005.18,0015.70,0003.67
2021-11-18 02:23:00,,0833.9,4.99,0.00,22.5,22.5,00.0,31.4,24.4,09.8,0000.0,0005.20,0015.24,0003.68
2021-11-18 02:24:00,,0833.9,5.00,0.00,22.5,22.4,00.0,31.4,24.4,09.8,0000.0,0005.26,0015.43,0003.69
2021-11-18 02:25:00,,0833.9,5.01,0.00,22.5,22.2,00.0,31.4,24.3,09.8,0000.0,0005.28,0015.02,0003.72
2021-11-18 02:26:00,,0833.9,5.00,0.00,22.5,22.1,00.0,31.5,24.3,09.8,0000.0,0005.33,0014.85,0003.75
2021-11-18 02:27:00,,0834.0,5.01,0.00,22.5,22.1,00.0,31.5,24.3,09.8,0000.0,0005.38,0015.21,0003.76
2021-11-18 02:28:00,,0834.0,4.99,0.00,22.5,22.0,00.0,31.5,24.2,09.8,0000.0,0005.34,0016.81,0003.76
2021-11-18 02:29:00,,0834.0,4.99,0.00,22.5,21.9,00.0,31.5,24.2,09.8,0000.0,0005.32,0017.07,0003.77
2021-11-18 02:30:00,,0834.0,5.01,0.00,22.4,21.9,00.0,31.5,24.2,09.8,0000.0,0005.28,0017.07,0003.77
2021-11-18 02:31:00,,0834.0,5.01,0.00,22.4,21.8,00.0,31.5,24.2,09.8,0000.0,0005.30,0017.22,0003.78
2021-11-18 02:32:00,,0834.0,4.99,0.00,22.4,21.8,00.0,31.5,24.2,09.8,0000.0,0005.28,0017.25,0003.79
2021-11-18 02:33:00,,0834.0,5.01,0.00,22.4,21.7,00.0,31.4,24.1,09.9,0000.0,0005.25,0017.05,0003.79
2021-11-18 02:34:00,,0834.0,5.00,0.00,22.4,21.7,00.0,31.4,24.1,09.9,0000.0,0005.19,0018.48,0003.80
2021-11-18 02:35:00,,0834.0,5.00,0.00,22.4,21.7,00.0,31.4,24.1,09.9,0000.0,0005.15,0018.36,0003.80
2021-11-18 02:36:00,,0834.0,5.00,0.00,22.4,21.6,00.0,31.4,24.1,09.9,0000.0,0005.11,0018.02,0003.80
2021-11-18 02:37:00,,0834.0,5.00,0.00,22.3,21.6,00.0,31.4,24.1,09.9,0000.0,0005.12,0017.93,0003.80
2021-11-18 02:38:00,,0834.0,5.00,0.00,22.3,21.6,00.0,31.4,24.1,09.9,0000.0,0005.10,0017.43,0003.82
2021-11-18 02:39:00,,0834.0,5.00,0.00,22.3,21.6,00.0,31.4,24.0,09.9,0000.0,0005.15,0016.09,0003.86
2021-11-18 02:40:00,,0834.0,5.00,0.00,22.3,21.5,00.0,31.4,24.0,09.9,0000.0,0005.21,0016.49,0003.89
2021-11-18 02:41:00,,0834.0,5.00,0.00,22.3,21.5,00.0,31.4,24.0,09.9,0000.0,0005.26,0016.14,0003.91
2021-11-18 02:42:00,,0834.0,5.00,0.00,22.2,21.5,00.0,31.4,24.0,10.0,0000.0,0005.26,0017.11,0003.95
2021-11-18 02:43:00,,0834.1,5.00,0.00,22.2,21.5,00.0,31.4,23.9,10.0,0000.0,0005.24,0017.32,0003.97
2021-11-18 02:44:00,,0834.0,5.00,0.00,22.3,21.8,00.0,31.4,24.0,09.9,0000.0,0005.26,0017.49,0004.00
2021-11-18 02:45:00,,0834.1,5.00,0.00,22.4,22.4,00.0,31.4,24.2,09.9,0000.0,0005.32,0015.91,0004.03
2021-11-18 02:46:00,,0834.1,4.99,0.00,22.5,23.0,00.0,31.4,24.4,09.8,0000.0,0005.31,0016.33,0004.04
2021-11-18 02:47:00,,0834.1,5.00,0.00,22.5,22.9,00.0,31.4,24.5,09.8,0000.0,0005.36,0017.76,0004.07
2021-11-18 02:48:00,,0834.1,5.00,0.00,22.6,22.7,00.0,31.5,24.5,09.8,0000.0,0005.32,0018.34,0004.09
2021-11-18 02:49:00,,0834.1,4.99,0.00,22.6,22.5,00.0,31.5,24.4,09.8,0000.0,0005.35,0018.80,0004.10
2021-11-18 02:50:00,,0834.1,5.01,0.00,22.5,22.3,00.0,31.5,24.4,09.8,0000.0,0005.37,0018.63,0004.08
2021-11-18 02:51:00,,0834.1,4.99,0.00,22.5,22.2,00.0,31.5,24.3,09.8,0000.0,0005.40,0018.10,0004.09
2021-11-18 02:52:00,,0834.0,5.00,0.00,22.5,22.1,00.0,31.5,24.3,09.8,0000.0,0005.44,0018.62,0004.09
2021-11-18 02:53:00,,0834.1,4.99,0.00,22.5,22.0,00.0,31.5,24.3,09.8,0000.0,0005.48,0018.33,0004.08
2021-11-18 02:54:00,,0834.1,5.02,0.00,22.5,21.9,00.0,31.5,24.3,09.8,0000.0,0005.52,0018.50,0004.08
2021-11-18 02:55:00,,0834.1,4.99,0.00,22.5,21.9,00.0,31.5,24.3,09.8,0000.0,0005.56,0019.06,0004.06
2021-11-18 02:56:00,,0834.0,5.00,0.00,22.5,21.8,00.0,31.5,24.2,09.8,0000.0,0005.60,0019.42,0004.05
2021-11-18 02:57:00,,0834.1,5.01,0.00,22.4,21.8,00.0,31.5,24.2,09.7,0000.0,0005.64,0018.94,0004.06
2021-11-18 02:58:00,,0834.1,4.99,0.00,22.4,21.7,00.0,31.5,24.2,09.8,0000.0,0005.60,0017.56,0004.05
2021-11-18 02:59:00,,0834.1,5.00,0.00,22.4,21.7,00.0,31.5,24.1,09.8,0000.0,0005.57,0017.54,0004.02
